World Cup FINA 2002 (étape 7)

Internationale

PARIS

Du Vendredi 18 Janvier 2002 au Samedi 19 Janvier 2002

Bassin de 25m

50 Nage Libre Dames

Séries

Nom Année Club Pays Temps Points Niv.
1 KIBALO Ekaterina 1982 RUSSIE RUS 0:25:69 936
2 VAN KOECKHOVEN Nina 1983 BELGIQUE BEL 0:25:76 930
3 MORAVCOVA Martina 1976 SLOVAQUIE SVK 0:25:80 926
4 MARSHALL Mélanie 1982 GRANDE-BRETAGNE GBR 0:25:91 917
5 ROLLAND Nadine 1975 CANADA CAN 0:25:94 915
6 PICKERING Karen 1971 GRANDE-BRETAGNE GBR 0:25:96 913
7 CARROLL Jennifer 1981 CANADA CAN 0:25:98 912
8 METELLA Malia 1982 FRANCE FRA 0:26:03 907
9 COPE Haley 1979 ETATS-UNIS USA 0:26:11 901
10 SUN So Eun 1988 CORÉE DU SUD KOR 0:26:15 898
11 EGDAL Karen 1978 DANEMARK DEN 0:26:20 894
12 SHEALY Courtney 1977 ETATS-UNIS USA 0:26:22 893
13 PALOMO Ana-Belen 1977 ESPAGNE ESP 0:26:24 891
14 BERDIX Célia 1984 FRANCE FRA 0:26:31 886
15 DIEZI Dominique 1977 SUISSE SUI 0:26:37 881
16 SCHOEBER Sonja 1985 ALLEMAGNE GER 0:26:39 880
17 ERIKSSON Hanna 1984 SUÈDE SWE 0:26:47 874
18 BRETT Rosalind 1979 GRANDE-BRETAGNE GBR 0:26:53 869
19 BOSSUYT Tine 1980 BELGIQUE BEL 0:26:53 869
20 MONCHAUX Magali 1980 FRANCE FRA 0:26:54 868
21 GOSTOMELSKY Anna 1981 ISRAËL ISR 0:26:64 861
22 VANDENABEELE Bieke 1984 BELGIQUE BEL 0:26:70 857
23 LISCHINSKY Michelle 1974 CANADA CAN 0:26:83 848
24 LECLERCQ Mélanie 1984 FRANCE FRA 0:26:87 845
25 TSAI Hiu Wai 1983 HONGKONG HKG 0:26:96 839
26 HAVARD Celine 1982 BELGIQUE BEL 0:26:97 838
27 PANG Shuk Mui 1984 HONGKONG HKG 0:27:03 834
28 LE VERGE Marianne 1979 FRANCE FRA 0:27:11 828
29 HACHMANN THIESSEN Tanja 1985 ALLEMAGNE GER 0:27:33 814
30 MONGEL Aurore 1982 FRANCE FRA 0:27:52 802
31 LORENZ Janina 1985 ALLEMAGNE GER 0:27:62 796
32 BUELENS Griet 1984 BELGIQUE BEL 0:27:66 793
33 LARAS Maya 1986 ALGÉRIE ALG 0:29:37 698

Finale A

Nom Année Club Pays Temps Points Niv.
1 MORAVCOVA Martina 1976 SLOVAQUIE SVK 0:24:95 1004
2 KIBALO Ekaterina 1982 RUSSIE RUS 0:25:32 968
3 PICKERING Karen 1971 GRANDE-BRETAGNE GBR 0:25:44 957
4 CARROLL Jennifer 1981 CANADA CAN 0:25:75 931
5 METELLA Malia 1982 FRANCE FRA 0:25:78 928
6 MARSHALL Mélanie 1982 GRANDE-BRETAGNE GBR 0:25:82 925
7 VAN KOECKHOVEN Nina 1983 BELGIQUE BEL 0:25:96 913
8 ROLLAND Nadine 1975 CANADA CAN 0:26:10 902